{"data":{"norad_id":69930,"epoch":"2026-09-19T23:02:29.205600Z","epoch_age_seconds":64435,"freshness":"FRESH","line1":"1 69930U 26156BP  26262.96006025  .00002061  00000+0  20501-3 0  9992","line2":"2 69930  97.7478 162.2753 0007291 280.0821  79.9576 14.92726181 11137","mean_motion":14.92726181,"eccentricity":0.0007291,"inclination_deg":97.7478,"raan_deg":162.2753,"arg_perigee_deg":280.0821,"mean_anomaly_deg":79.9576,"bstar":0.00020501,"rev_number":1113,"period_min":96.46779284298,"perigee_km":584.35936956667,"apogee_km":594.51948951623,"semimajor_km":6967.5764295414,"source":"CELESTRAK","updated_at":"2026-09-20T09:00:25.206737Z"}}